User: anonymous
Location: Brno
(49.2000°N, 16.6330°E)
Time: 06:32:47
(UTC+02:00)
Language:

Meteor 1-4 Rocket - Orbit

View from above orbital plane
View from above orbital plane
View from above satellite
View from above satellite

Ground track
Ground track

The orbit data is extracted from the following two-line orbital elements,

1 04394U 70037B   14110.46946098  .00011015  00000-0  49533-3 0  5542
2 04394 081.2448 282.8949 0049772 085.6584 275.0331 15.19857089388942
Epoch (UTC): 20 April 2014 11:16:01
Eccentricity: 0.0049772
inclination: 81.2448°
perigee height: 472 km
apogee height: 540 km
right ascension of ascending node: 282.8949°
argument of perigee: 85.6584°
revolutions per day: 15.19857089
mean anomaly at epoch: 275.0331°
orbit number at epoch: 38894

The dashed part of the orbit path shows where the satellite is in the earth's shadow,  

DLR